Weather Roundup
Issued by NWS

Home | Current Version | Previous Version | Graphics & Text | Print | Product List | Glossary Off
Versions: 1 2 3 4 5 6 7 8 9 10 11 12 13 14 15 16 17 18 19 20 21 22 23 24 25 26 27 28 29 30 31 32 33 34 35 36 37 38 39 40 41 42 43 44 45 46 47 48 49 50

000
NZUS93 KARX 282310
HRRWXR

CURRENT HOURLY OBSERVATIONS ACROSS
MUCH OF THE UPPER MISSISSIPPI VALLEY
NATIONAL WEATHER SERVICE LA CROSSE WI
500 PM CST SAT FEB 28 2015


...SOUTHEAST MINNESOTA...


CITY           SKY/WX    TMP DP  RH WIND       PRES   REMARKS
ROCHESTER      CLOUDY    11   1  64 S14       30.38F WCI  -5
ROCHESTER/MAYO CLOUDY    12  -2  52 SE14      30.40F WCI  -3
WINONA         CLOUDY    19   0  42 SW8       30.46F WCI   9
AUSTIN         CLOUDY    10   1  67 SE8       30.38F WCI  -1
ALBERT LEA     MOCLDY    12   3  67 S12       30.36F WCI  -2
DODGE CENTER   PTCLDY    12   3  67 S13       30.37F WCI  -3
PRESTON        CLOUDY    11   1  62 S10       30.41F WCI  -2
OWATONNA       CLOUDY    14   3  62 SE14      30.37F WCI  -1
FARIBAULT      CLOUDY    16   5  62 SE15      30.38S WCI   1
$$

...ELSEWHERE IN MINNESOTA...


CITY           SKY/WX    TMP DP  RH WIND       PRES   REMARKS
MINNEAPOLIS    MOCLDY    16   2  54 S15G24    30.38S WCI   1
INTNL FALLS    CLOUDY    22   0  38 SW9       30.13F WCI  12
DULUTH         MOCLDY    20   2  45 S14       30.23F WCI   7
RED WING       CLOUDY    16   1  53 S7        30.42F WCI   6
REDWOOD FALLS  CLOUDY    21  12  68 S21       30.30S WCI   5
MANKATO        CLEAR     18   1  49 S13G18    30.35F WCI   4
FAIRMONT       CLOUDY    19  10  68 S14       30.31F WCI   6
$$

...SOUTHWEST WISCONSIN...


CITY           SKY/WX    TMP DP  RH WIND       PRES   REMARKS
LA CROSSE      PTCLDY    18  -2  41 S12       30.47F WCI   5
PRAIRIE DU CHI CLOUDY    17  -3  41 E7        30.49F WCI   8
BOSCOBEL       MOCLDY    17   0  47 S6        30.50F WCI   9
LONE ROCK      PTCLDY    15   0  51 S7        30.50F WCI   5
PLATTEVILLE    PTCLDY    14   5  67 E8        30.47F WCI   3
FORT MC COY    CLEAR     19  -3  39 S7        30.47S WCI   9
CAMP DOUGLAS   CLEAR     19  -2  39 S8        30.45F WCI   8
VIROQUA        FAIR      15  -2  46 S8        30.42F WCI   4
WIS DELLS      CLEAR     15   0  49 S9        30.47F WCI   4
$$

...ELSEWHERE IN WISCONSIN...


CITY           SKY/WX    TMP DP  RH WIND       PRES   REMARKS
MILWAUKEE      PTCLDY    18  -1  43 S7        30.54F WCI   9
MADISON        MOCLDY    16   0  49 S12       30.50F WCI   3
GREEN BAY      CLEAR     18   1  47 S12       30.50F WCI   5
EAU CLAIRE     PTCLDY    17  -1  45 S9        30.41F WCI   6
BLACK RVR FLS  FAIR      20  -4  35 S7        30.44F WCI  11
MEDFORD        CLEAR     16  -4  41 S7        30.37F WCI   6
WAUSAU         FAIR      17  -4  39 S12       30.40F WCI   4
WIS RAPIDS     CLEAR     17  -5  37 SW9       30.45F WCI   6
MARSHFIELD     CLEAR     17  -3  41 SW9       30.40F WCI   6
RICE LAKE      PTCLDY    16  -1  48 S12       30.38F WCI   3
$$

...NORTHEAST IOWA...


CITY           SKY/WX    TMP DP  RH WIND       PRES   REMARKS
DECORAH        CLOUDY    14   0  52 S9        30.42F WCI   2
MASON CITY     CLOUDY    12   4  70 S14       30.39F WCI  -3
CHARLES CITY   MOCLDY    14   3  62 SE12      30.42F WCI   0
OELWEIN        PTCLDY    12   3  67 SE13      30.45S WCI  -3
$$

...ELSEWHERE IN IOWA...


CITY           SKY/WX    TMP DP  RH WIND       PRES   REMARKS
DES MOINES     LGT SNOW  22  17  81 SE6       30.40F WCI  14
IOWA CITY      LGT SNOW  16  10  77 SE9       30.50F VSB 1   WCI   4
FORT DODGE     CLOUDY    21  10  63 S10       30.37F WCI  10
$$

...NORTHERN ILLINOIS...


CITY           SKY/WX    TMP DP  RH WIND       PRES   REMARKS
CHICAGO-OHARE  CLOUDY    19   2  47 S7        30.54F WCI  10
CHICAGO-MIDWAY MOCLDY    23   3  42 SE9       30.55F WCI  13
MOLINE         CLOUDY    18   6  59 E9        30.51F WCI   7
ROCKFORD       CLOUDY    17   3  54 SE9       30.53F WCI   6
PEORIA         LGT SNOW  22  16  78 S7        30.52S VSB 1   WCI  13
$$

NOTE: "FAIR" INDICATES FEW OR NO CLOUDS BELOW 12,000 FEET WITH NO
SIGNIFICANT WEATHER AND/OR OBSTRUCTIONS TO VISIBILITY. WIND
SPEEDS ARE IN MILES-PER-HOUR.



USA.gov is the U.S. government's official web portal to all federal, state and local government web resources and services.